User: anonymous   Login
Location: Port Stanley
(42.6641°N, 81.2156°W)
Time: 18:34:49
(UTC-04:00)
Language:

ISS - Orbit

View from above orbital plane
View from above orbital plane
View from above satellite
View from above satellite

Ground track
Ground track

The orbit data is extracted from the following two-line orbital elements,

1 25544U 98067A   19203.92676530  .00016717  00000-0  10270-3 0  9055
2 25544  51.6403 183.9604 0006362 171.4264 188.6997 15.50977705 20796
Epoch (UTC): 22 July 2019 22:14:32
Eccentricity: 0.0006362
inclination: 51.6403°
perigee height: 409 km
apogee height: 418 km
right ascension of ascending node: 183.9604°
argument of perigee: 171.4264°
revolutions per day: 15.50977705
mean anomaly at epoch: 188.6997°
orbit number at epoch: 2079

The dashed part of the orbit path shows where the satellite is in the earth's shadow,  

DLR